TimeEST,TemperatureF,Dew PointF,Humidity,Sea Level PressureIn,VisibilityMPH,Wind Direction,Wind SpeedMPH,Gust SpeedMPH,PrecipitationIn,Events,Conditions,WindDirDegrees,DateUTC
12:56 AM,57.9,53.1,84,29.96,10.0,SSW,11.5,20.7,N/A,,Overcast,200,2012-12-05 05:56:00
1:30 AM,57.2,53.6,88,29.90,10.0,South,10.4,-,N/A,,Partly Cloudy,190,2012-12-05 06:30:00
1:56 AM,57.0,53.1,87,29.94,10.0,South,10.4,18.4,N/A,,Clear,190,2012-12-05 06:56:00
2:56 AM,57.0,52.0,83,29.90,10.0,South,12.7,-,N/A,,Clear,190,2012-12-05 07:56:00
3:56 AM,55.9,52.0,87,29.86,10.0,SSW,8.1,-,N/A,,Mostly Cloudy,200,2012-12-05 08:56:00
4:56 AM,55.9,52.0,87,29.87,10.0,SW,9.2,-,N/A,,Overcast,230,2012-12-05 09:56:00
5:06 AM,57.2,51.8,82,29.83,10.0,SW,10.4,-,N/A,,Overcast,220,2012-12-05 10:06:00
5:54 AM,55.4,51.8,88,29.84,10.0,West,4.6,-,0.00,,Overcast,260,2012-12-05 10:54:00
5:56 AM,55.9,51.1,84,29.88,10.0,West,5.8,-,0.00,,Overcast,260,2012-12-05 10:56:00
6:56 AM,53.1,48.0,83,29.89,10.0,West,6.9,-,0.01,Rain,Light Rain,270,2012-12-05 11:56:00
7:56 AM,53.1,44.1,71,29.92,10.0,West,11.5,19.6,0.00,,Overcast,280,2012-12-05 12:56:00
9:56 AM,51.1,37.9,61,29.96,10.0,WNW,12.7,19.6,N/A,,Mostly Cloudy,290,2012-12-05 14:56:00
10:56 AM,53.1,37.0,55,29.94,10.0,NW,16.1,24.2,N/A,,Partly Cloudy,310,2012-12-05 15:56:00
11:56 AM,52.0,35.1,53,29.93,10.0,WNW,13.8,23.0,N/A,,Mostly Cloudy,300,2012-12-05 16:56:00
12:56 PM,53.1,33.1,47,29.93,10.0,WNW,15.0,24.2,N/A,,Overcast,290,2012-12-05 17:56:00
1:56 PM,51.1,32.0,48,29.93,10.0,WNW,18.4,25.3,N/A,,Scattered Clouds,300,2012-12-05 18:56:00
2:56 PM,50.0,32.0,50,29.94,10.0,West,12.7,19.6,N/A,,Mostly Cloudy,270,2012-12-05 19:56:00
3:56 PM,46.0,28.0,50,29.98,10.0,WNW,17.3,25.3,N/A,,Mostly Cloudy,290,2012-12-05 20:56:00
4:56 PM,42.1,26.1,53,30.01,10.0,West,11.5,23.0,N/A,,Clear,280,2012-12-05 21:56:00
5:56 PM,41.0,24.1,51,30.05,10.0,NW,16.1,25.3,N/A,,Overcast,320,2012-12-05 22:56:00
6:56 PM,39.9,21.0,47,30.07,10.0,NW,18.4,25.3,N/A,,Overcast,310,2012-12-05 23:56:00
7:56 PM,37.9,21.9,53,30.11,10.0,NW,13.8,27.6,N/A,,Overcast,320,2012-12-06 00:56:00
8:56 PM,37.0,21.9,54,30.12,10.0,NNW,12.7,20.7,N/A,,Overcast,330,2012-12-06 01:56:00
9:56 PM,36.0,18.0,48,30.13,10.0,NW,15.0,23.0,N/A,,Overcast,320,2012-12-06 02:56:00
10:56 PM,33.1,14.0,46,30.15,10.0,NW,16.1,31.1,N/A,,Scattered Clouds,320,2012-12-06 03:56:00
11:56 PM,30.9,12.9,47,30.18,10.0,NW,13.8,25.3,N/A,,Clear,310,2012-12-06 04:56:00